START_TIME,STEP,MOV.,H8,t_acc.,H43,t_acc.,M25,t_acc.,H9,t_acc.
1979-07-26 03:00:28.860 ,1,0,0.,12.0,0.,12.0,0.,12.0,0.,12.0
1979-07-26 03:00:40.860 ,1,0,0.,12.0,0.,12.0,0.,12.0,0.,12.0
1979-07-26 03:00:52.860 ,2,0,0.,12.0,0.,12.0,0.,12.0,0.,12.0
1979-07-26 03:01:04.860 ,2,0,0.,12.0,0.,12.0,0.,12.0,0.,12.0
1979-07-26 03:01:16.860 ,2,0,0.,12.0,0.,12.0,0.,12.0,0.,12.0
1979-07-26 03:01:28.860 ,2,0,0.,12.0,0.,12.0,0.,12.0,0.,12.0
1979-07-26 03:01:40.860 ,3,0,0.,12.0,0.,12.0,0.,12.0,0.,12.0
1979-07-26 03:01:52.860 ,3,0,0.,12.0,0.,12.0,0.,12.0,0.,12.0
1979-07-26 03:02:04.860 ,3,0,0.,12.0,0.,12.0,0.,12.0,0.,12.0
1979-07-26 03:02:16.860 ,3,0,0.,12.0,0.,12.0,0.,12.0,0.,12.0
1979-07-26 03:02:28.860 ,4,0,0.,12.0,0.,12.0,0.,12.0,0.,12.0
1979-07-26 03:02:40.860 ,4,0,0.,12.0,0.,12.0,0.,12.0,0.,12.0
1979-07-26 03:02:52.860 ,4,0,0.,12.0,0.,12.0,0.,12.0,0.,12.0
1979-07-26 03:03:04.860 ,4,0,0.,12.0,0.,12.0,0.,12.0,0.,12.0
1979-07-26 03:03:16.860 ,5,0,0.,12.0,0.,12.0,0.,12.0,0.,12.0
1979-07-26 03:03:28.860 ,5,0,0.,12.0,0.,12.0,0.,12.0,0.,12.0
1979-07-26 03:03:40.860 ,5,0,0.,12.0,0.,12.0,0.,12.0,0.,12.0
1979-07-26 03:03:52.860 ,5,0,0.,12.0,0.,12.0,0.,12.0,0.,12.0
1979-07-26 03:04:04.860 ,6,0,0.,12.0,0.,12.0,0.,12.0,0.,12.0
1979-07-26 03:04:16.860 ,6,0,0.,12.0,0.,12.0,0.,12.0,0.,12.0
1979-07-26 03:04:28.860 ,6,0,0.,12.0,0.,12.0,0.,12.0,0.,12.0
1979-07-26 03:04:40.860 ,6,0,0.,12.0,0.,12.0,0.,12.0,0.,12.0
1979-07-26 03:04:52.860 ,7,0,0.,12.0,0.,12.0,0.,12.0,0.,12.0
1979-07-26 03:05:04.860 ,7,0,0.,12.0,0.,12.0,0.,12.0,0.,12.0
1979-07-26 03:05:16.860 ,7,0,0.,12.0,0.,12.0,0.,12.0,0.,12.0
1979-07-26 03:05:28.860 ,7,0,0.,12.0,0.,12.0,0.,12.0,0.,12.0
1979-07-26 03:05:40.860 ,7,0,0.,12.0,0.,12.0,0.,12.0,0.,12.0
1979-07-26 03:05:52.860 ,7,0,0.,12.0,0.,12.0,0.,12.0,0.,12.0
1979-07-26 03:06:04.860 ,7,0,0.,12.0,0.,12.0,0.,12.0,0.,12.0
1979-07-26 03:06:16.860 ,7,0,0.,12.0,0.,12.0,0.,12.0,0.,12.0
1979-07-26 03:06:28.860 ,6,0,0.,12.0,0.,12.0,0.,12.0,0.,12.0
1979-07-26 03:06:40.860 ,6,0,0.,12.0,0.,12.0,0.,12.0,0.,12.0
1979-07-26 03:06:52.860 ,6,0,0.,12.0,0.,12.0,0.,12.0,0.,12.0
1979-07-26 03:07:04.860 ,6,0,0.,12.0,0.,12.0,0.,12.0,0.,12.0
1979-07-26 03:07:16.860 ,5,0,0.,12.0,0.,12.0,0.,12.0,0.,12.0
1979-07-26 03:07:28.860 ,5,0,0.,12.0,0.,12.0,0.,12.0,0.,12.0
1979-07-26 03:07:40.860 ,5,0,0.,12.0,0.,12.0,0.,12.0,0.,12.0
1979-07-26 03:07:52.860 ,5,0,0.,12.0,0.,12.0,0.,12.0,0.,12.0
1979-07-26 03:08:04.860 ,4,0,0.,12.0,0.,12.0,0.,12.0,0.,12.0
1979-07-26 03:08:16.860 ,4,0,0.,12.0,0.,12.0,0.,12.0,0.,12.0
1979-07-26 03:08:28.860 ,4,0,0.,12.0,0.,12.0,0.,12.0,0.,12.0
1979-07-26 03:08:40.860 ,4,0,0.,12.0,0.,12.0,0.,12.0,0.,12.0
1979-07-26 03:08:52.860 ,3,0,0.,12.0,0.,12.0,0.,12.0,0.,12.0
1979-07-26 03:09:04.860 ,3,0,0.,12.0,0.,12.0,0.,12.0,0.,12.0
1979-07-26 03:09:16.860 ,3,0,0.,12.0,0.,12.0,0.,12.0,0.,12.0
1979-07-26 03:09:28.860 ,3,0,0.,12.0,0.,12.0,0.,12.0,0.,12.0
1979-07-26 03:09:40.860 ,2,0,0.,12.0,0.,12.0,0.,12.0,0.,12.0
1979-07-26 03:09:52.860 ,2,0,0.,12.0,0.,12.0,0.,12.0,0.,12.0
1979-07-26 03:10:04.860 ,2,0,0.,12.0,0.,12.0,0.,12.0,0.,12.0
1979-07-26 03:10:16.860 ,2,0,0.,12.0,0.,12.0,0.,12.0,0.,12.0
1979-07-26 03:10:28.860 ,1,0,0.,12.0,0.,12.0,0.,12.0,0.,12.0
1979-07-26 03:10:40.860 ,1,0,0.,12.0,0.,12.0,0.,12.0,0.,12.0
1979-07-26 03:10:52.860 ,1,0,0.,12.0,0.,12.0,0.,12.0,0.,12.0
1979-07-26 03:11:04.860 ,1,0,0.,12.0,0.,12.0,0.,12.0,0.,12.0
1979-07-26 03:11:16.860 ,0,0,0.,12.0,0.,12.0,0.,12.0,0.,12.0
1979-07-26 03:11:28.860 ,0,0,0.,12.0,0.,12.0,0.,12.0,0.,12.0
1979-07-26 03:11:40.860 ,0,0,0.,12.0,0.,12.0,0.,12.0,0.,12.0
1979-07-26 03:11:52.860 ,0,0,0.,12.0,0.,12.0,0.,12.0,0.,12.0
1979-07-26 03:12:04.860 ,0,0,0.,12.0,0.,12.0,0.,12.0,0.,12.0
1979-07-26 03:12:16.860 ,0,0,0.,12.0,0.,12.0,0.,12.0,0.,12.0
1979-07-26 03:12:28.860 ,0,0,0.,12.0,0.,12.0,0.,12.0,0.,12.0
1979-07-26 03:12:40.860 ,0,0,0.,12.0,0.,12.0,0.,12.0,0.,12.0
1979-07-26 03:12:52.860 ,1,0,0.,12.0,0.,12.0,0.,12.0,0.,12.0
1979-07-26 03:13:04.860 ,1,0,0.,12.0,0.,12.0,0.,12.0,0.,12.0
1979-07-26 03:13:16.860 ,1,0,0.,12.0,0.,12.0,0.,12.0,0.,12.0
1979-07-26 03:13:28.860 ,1,0,0.,12.0,0.,12.0,0.,12.0,0.,12.0
1979-07-26 03:13:40.860 ,2,0,0.,12.0,0.,12.0,0.,12.0,0.,12.0
1979-07-26 03:13:52.860 ,2,0,0.,12.0,0.,12.0,0.,12.0,0.,12.0
1979-07-26 03:14:04.860 ,2,0,0.,12.0,0.,12.0,0.,12.0,0.,12.0
1979-07-26 03:14:16.860 ,2,0,0.,12.0,0.,12.0,0.,12.0,0.,12.0
1979-07-26 03:14:28.860 ,3,0,0.,12.0,0.,12.0,0.,12.0,0.,12.0
1979-07-26 03:14:40.860 ,3,0,0.,12.0,0.,12.0,0.,12.0,0.,12.0
1979-07-26 03:14:52.860 ,3,0,0.,12.0,0.,12.0,0.,12.0,0.,12.0
1979-07-26 03:15:04.860 ,3,0,0.,12.0,0.,12.0,0.,12.0,0.,12.0
1979-07-26 03:15:16.860 ,4,0,0.,12.0,0.,12.0,0.,12.0,0.,12.0
1979-07-26 03:15:28.860 ,4,0,0.,12.0,0.,12.0,0.,12.0,0.,12.0
1979-07-26 03:15:40.860 ,4,0,1.,12.0,0.,12.0,0.,12.0,0.,12.0
1979-07-26 03:15:52.860 ,4,0,0.,12.0,0.,12.0,0.,12.0,0.,12.0
1979-07-26 03:16:04.860 ,5,0,0.,12.0,0.,12.0,0.,12.0,0.,12.0
1979-07-26 03:16:16.860 ,5,0,0.,12.0,0.,12.0,0.,12.0,0.,12.0
1979-07-26 03:16:28.860 ,5,0,0.,12.0,0.,12.0,0.,12.0,0.,12.0
1979-07-26 03:16:40.860 ,5,0,0.,12.0,0.,12.0,0.,12.0,0.,12.0
1979-07-26 03:16:52.860 ,6,0,0.,12.0,0.,12.0,0.,12.0,0.,12.0
1979-07-26 03:17:04.860 ,6,0,0.,12.0,0.,12.0,0.,12.0,0.,12.0
1979-07-26 03:17:16.860 ,6,0,0.,12.0,0.,12.0,0.,12.0,0.,12.0
1979-07-26 03:17:28.860 ,6,0,0.,12.0,0.,12.0,0.,12.0,0.,12.0
1979-07-26 03:17:40.860 ,7,0,0.,12.0,0.,12.0,0.,12.0,0.,12.0
1979-07-26 03:17:52.860 ,7,0,0.,12.0,0.,12.0,0.,12.0,0.,12.0
1979-07-26 03:18:04.860 ,7,0,0.,12.0,0.,12.0,0.,12.0,0.,12.0
1979-07-26 03:18:16.860 ,7,0,0.,12.0,0.,12.0,0.,12.0,0.,12.0
1979-07-26 03:18:28.860 ,7,0,0.,12.0,0.,12.0,0.,12.0,0.,12.0
1979-07-26 03:18:40.860 ,7,0,0.,12.0,0.,12.0,0.,12.0,0.,12.0
1979-07-26 03:18:52.860 ,7,0,0.,12.0,0.,12.0,0.,12.0,0.,12.0
1979-07-26 03:19:04.860 ,7,0,0.,12.0,0.,12.0,0.,12.0,0.,12.0
1979-07-26 03:19:16.860 ,6,0,0.,12.0,0.,12.0,0.,12.0,0.,12.0
1979-07-26 03:19:28.860 ,6,0,0.,12.0,0.,12.0,0.,12.0,0.,12.0
1979-07-26 03:19:40.860 ,6,0,0.,12.0,0.,12.0,0.,12.0,0.,12.0
1979-07-26 03:19:52.860 ,6,0,0.,12.0,0.,12.0,0.,12.0,0.,12.0
1979-07-26 03:20:04.860 ,5,0,0.,12.0,0.,12.0,0.,12.0,0.,12.0
1979-07-26 03:20:16.860 ,5,0,0.,12.0,0.,12.0,0.,12.0,0.,12.0
1979-07-26 03:20:28.860 ,5,0,0.,12.0,0.,12.0,0.,12.0,0.,12.0
1979-07-26 03:20:40.860 ,5,0,0.,12.0,0.,12.0,0.,12.0,0.,12.0
1979-07-26 03:20:52.860 ,4,0,0.,12.0,0.,12.0,0.,12.0,0.,12.0
1979-07-26 03:21:04.860 ,4,0,0.,12.0,0.,12.0,0.,12.0,0.,12.0
1979-07-26 03:21:16.860 ,4,0,0.,12.0,0.,12.0,0.,12.0,0.,12.0
1979-07-26 03:21:28.860 ,4,0,0.,12.0,0.,12.0,0.,12.0,0.,12.0
1979-07-26 03:21:40.860 ,3,0,0.,12.0,0.,12.0,0.,12.0,0.,12.0
1979-07-26 03:21:52.860 ,3,0,0.,12.0,0.,12.0,0.,12.0,0.,12.0
1979-07-26 03:22:04.860 ,3,0,0.,12.0,0.,12.0,0.,12.0,0.,12.0
1979-07-26 03:22:16.860 ,3,0,0.,12.0,0.,12.0,0.,12.0,0.,12.0
1979-07-26 03:22:28.860 ,2,0,0.,12.0,0.,12.0,0.,12.0,0.,12.0
1979-07-26 03:22:40.860 ,2,0,0.,12.0,0.,12.0,0.,12.0,0.,12.0
1979-07-26 03:22:52.860 ,2,0,0.,12.0,0.,12.0,0.,12.0,0.,12.0
1979-07-26 03:23:04.860 ,2,0,0.,12.0,0.,12.0,0.,12.0,0.,12.0
1979-07-26 03:23:16.860 ,1,0,0.,12.0,0.,12.0,0.,12.0,0.,12.0
1979-07-26 03:23:28.860 ,1,0,0.,12.0,0.,12.0,0.,12.0,0.,12.0
1979-07-26 03:23:40.860 ,1,0,0.,12.0,0.,12.0,0.,12.0,0.,12.0
1979-07-26 03:23:52.860 ,1,0,0.,12.0,0.,12.0,0.,12.0,0.,12.0
1979-07-26 03:24:04.860 ,0,0,0.,12.0,0.,12.0,0.,12.0,0.,12.0
1979-07-26 03:24:16.860 ,0,0,0.,12.0,0.,12.0,0.,12.0,0.,12.0
1979-07-26 03:24:28.860 ,0,0,0.,12.0,0.,12.0,0.,12.0,0.,12.0
1979-07-26 03:24:40.860 ,0,0,0.,12.0,0.,12.0,0.,12.0,0.,12.0
1979-07-26 03:24:52.860 ,0,0,0.,12.0,0.,12.0,0.,12.0,0.,12.0
1979-07-26 03:25:04.860 ,0,0,0.,12.0,0.,12.0,0.,12.0,0.,12.0
1979-07-26 03:25:16.860 ,0,0,0.,12.0,0.,12.0,0.,12.0,0.,12.0
1979-07-26 03:25:28.860 ,0,0,0.,12.0,0.,12.0,0.,12.0,0.,12.0
1979-07-26 03:25:40.860 ,1,0,0.,12.0,0.,12.0,0.,12.0,0.,12.0
1979-07-26 03:25:52.860 ,1,0,0.,12.0,0.,12.0,0.,12.0,0.,12.0
1979-07-26 03:26:04.860 ,1,0,0.,12.0,0.,12.0,0.,12.0,0.,12.0
1979-07-26 03:26:16.860 ,1,0,0.,12.0,0.,12.0,0.,12.0,0.,12.0
1979-07-26 03:26:28.860 ,2,0,0.,12.0,0.,12.0,0.,12.0,0.,12.0
1979-07-26 03:26:40.860 ,2,0,0.,12.0,0.,12.0,0.,12.0,0.,12.0
1979-07-26 03:26:52.860 ,2,0,0.,12.0,0.,12.0,0.,12.0,0.,12.0
1979-07-26 03:27:04.860 ,2,0,0.,12.0,0.,12.0,0.,12.0,0.,12.0
1979-07-26 03:27:16.860 ,3,0,0.,12.0,0.,12.0,0.,12.0,0.,12.0
1979-07-26 03:27:28.860 ,3,0,0.,12.0,0.,12.0,0.,12.0,0.,12.0
1979-07-26 03:27:40.860 ,3,0,0.,12.0,0.,12.0,0.,12.0,0.,12.0
1979-07-26 03:27:52.860 ,3,0,0.,12.0,0.,12.0,0.,12.0,0.,12.0
1979-07-26 03:28:04.860 ,4,0,0.,12.0,0.,12.0,0.,12.0,0.,12.0
1979-07-26 03:28:16.860 ,4,0,0.,12.0,0.,12.0,0.,12.0,0.,12.0
1979-07-26 03:28:28.860 ,4,0,0.,12.0,0.,12.0,0.,12.0,0.,12.0
1979-07-26 03:28:40.860 ,4,0,0.,12.0,0.,12.0,0.,12.0,0.,12.0
1979-07-26 03:28:52.860 ,5,0,0.,12.0,0.,12.0,0.,12.0,0.,12.0
1979-07-26 03:29:04.860 ,5,0,0.,12.0,0.,12.0,0.,12.0,0.,12.0
1979-07-26 03:29:16.860 ,5,0,0.,12.0,0.,12.0,0.,12.0,0.,12.0
1979-07-26 03:29:28.860 ,5,0,0.,12.0,0.,12.0,0.,12.0,0.,12.0
1979-07-26 03:29:40.860 ,6,0,0.,12.0,0.,12.0,0.,12.0,0.,12.0
1979-07-26 03:29:52.860 ,6,0,0.,12.0,0.,12.0,0.,12.0,0.,12.0
1979-07-26 03:30:04.860 ,6,0,0.,12.0,0.,12.0,0.,12.0,0.,12.0
1979-07-26 03:30:16.860 ,6,0,0.,12.0,0.,12.0,0.,12.0,0.,12.0
1979-07-26 03:30:28.860 ,7,0,0.,12.0,0.,12.0,0.,12.0,0.,12.0
1979-07-26 03:30:40.860 ,7,0,0.,12.0,0.,12.0,0.,12.0,0.,12.0
1979-07-26 03:30:52.860 ,7,0,0.,12.0,0.,12.0,0.,12.0,0.,12.0
1979-07-26 03:31:04.860 ,7,0,0.,12.0,0.,12.0,0.,12.0,0.,12.0
1979-07-26 03:31:16.860 ,3,1,0.,12.0,0.,12.0,0.,12.0,0.,12.0
1979-07-26 03:31:28.860 ,3,1,0.,12.0,0.,12.0,0.,12.0,0.,12.0
1979-07-26 03:31:40.860 ,0,1,0.,12.0,0.,12.0,0.,12.0,0.,12.0
1979-07-26 03:31:52.860 ,0,1,0.,12.0,0.,12.0,0.,12.0,0.,12.0
1979-07-26 03:32:04.860 ,4,1,0.,12.0,0.,12.0,0.,12.0,0.,12.0
1979-07-26 03:32:16.860 ,4,1,0.,12.0,0.,12.0,0.,12.0,0.,12.0
1979-07-26 03:32:28.860 ,7,1,0.,12.0,0.,12.0,0.,12.0,0.,12.0
1979-07-26 03:32:40.860 ,7,1,0.,12.0,0.,12.0,0.,12.0,0.,12.0
1979-07-26 03:32:52.860 ,3,1,0.,12.0,0.,12.0,0.,12.0,0.,12.0
1979-07-26 03:33:04.860 ,3,1,0.,12.0,0.,12.0,0.,12.0,0.,12.0
1979-07-26 03:33:16.860 ,0,1,0.,12.0,0.,12.0,0.,12.0,0.,12.0
1979-07-26 03:33:28.860 ,0,1,0.,12.0,0.,12.0,0.,12.0,0.,12.0
1979-07-26 03:33:40.860 ,4,1,0.,12.0,0.,12.0,0.,12.0,0.,12.0
1979-07-26 03:33:52.860 ,4,1,0.,12.0,0.,12.0,0.,12.0,0.,12.0
1979-07-26 03:34:04.860 ,7,1,0.,12.0,0.,12.0,0.,12.0,0.,12.0
1979-07-26 03:34:16.860 ,7,1,0.,12.0,0.,12.0,0.,12.0,0.,12.0
1979-07-26 03:34:28.860 ,3,1,0.,12.0,0.,12.0,0.,12.0,0.,12.0
1979-07-26 03:34:40.860 ,3,1,0.,12.0,0.,12.0,0.,12.0,0.,12.0
1979-07-26 03:34:52.860 ,0,1,0.,12.0,0.,12.0,0.,12.0,0.,12.0
1979-07-26 03:35:04.860 ,0,1,0.,12.0,0.,12.0,0.,12.0,0.,12.0
1979-07-26 03:35:16.860 ,4,1,0.,12.0,0.,12.0,0.,12.0,0.,12.0
1979-07-26 03:35:28.860 ,4,1,0.,12.0,0.,12.0,0.,12.0,0.,12.0
1979-07-26 03:35:40.860 ,7,1,0.,12.0,0.,12.0,0.,12.0,0.,12.0
1979-07-26 03:35:52.860 ,7,1,0.,12.0,0.,12.0,0.,12.0,0.,12.0
1979-07-26 03:36:04.860 ,3,1,0.,12.0,0.,12.0,0.,12.0,0.,12.0
1979-07-26 03:36:16.860 ,3,1,0.,12.0,0.,12.0,0.,12.0,0.,12.0
1979-07-26 03:36:28.860 ,0,1,0.,12.0,0.,12.0,0.,12.0,0.,12.0
1979-07-26 03:36:40.860 ,0,1,0.,12.0,0.,12.0,0.,12.0,0.,12.0
1979-07-26 03:36:52.860 ,4,1,0.,12.0,0.,12.0,0.,12.0,0.,12.0
1979-07-26 03:37:04.860 ,4,1,0.,12.0,0.,12.0,0.,12.0,0.,12.0
1979-07-26 03:37:16.860 ,7,1,0.,12.0,0.,12.0,0.,12.0,0.,12.0
1979-07-26 03:37:28.860 ,7,1,0.,12.0,0.,12.0,0.,12.0,0.,12.0
1979-07-26 03:37:40.860 ,3,1,0.,12.0,0.,12.0,0.,12.0,0.,12.0
1979-07-26 03:37:52.860 ,3,1,0.,12.0,0.,12.0,0.,12.0,0.,12.0
1979-07-26 03:38:04.860 ,0,1,0.,12.0,0.,12.0,0.,12.0,0.,12.0
1979-07-26 03:38:16.860 ,0,1,0.,12.0,0.,12.0,0.,12.0,0.,12.0
1979-07-26 03:38:28.860 ,4,1,0.,12.0,0.,12.0,0.,12.0,0.,12.0
1979-07-26 03:38:40.860 ,4,1,0.,12.0,0.,12.0,0.,12.0,0.,12.0
1979-07-26 03:38:52.860 ,7,1,0.,12.0,0.,12.0,0.,12.0,0.,12.0
1979-07-26 03:39:04.860 ,7,1,0.,12.0,0.,12.0,0.,12.0,0.,12.0
1979-07-26 03:39:16.860 ,3,1,0.,12.0,0.,12.0,0.,12.0,0.,12.0
1979-07-26 03:39:28.860 ,3,1,0.,12.0,0.,12.0,0.,12.0,0.,12.0
1979-07-26 03:39:40.860 ,0,1,0.,12.0,0.,12.0,0.,12.0,0.,12.0
1979-07-26 03:39:52.860 ,0,1,0.,12.0,0.,12.0,0.,12.0,0.,12.0
1979-07-26 03:40:04.860 ,4,1,0.,12.0,0.,12.0,0.,12.0,0.,12.0
1979-07-26 03:40:16.860 ,4,1,0.,12.0,0.,12.0,0.,12.0,0.,12.0
1979-07-26 03:40:28.860 ,7,1,0.,12.0,0.,12.0,0.,12.0,0.,12.0
1979-07-26 03:40:40.860 ,7,1,0.,12.0,0.,12.0,0.,12.0,0.,12.0
1979-07-26 03:40:52.860 ,3,1,0.,12.0,0.,12.0,0.,12.0,0.,12.0
1979-07-26 03:41:04.860 ,3,1,0.,12.0,0.,12.0,0.,12.0,0.,12.0
1979-07-26 03:41:16.860 ,0,1,0.,12.0,0.,12.0,0.,12.0,0.,12.0
1979-07-26 03:41:28.860 ,0,1,0.,12.0,0.,12.0,0.,12.0,0.,12.0
1979-07-26 03:41:40.860 ,0,0,0.,12.0,0.,12.0,0.,12.0,0.,12.0
1979-07-26 03:41:52.860 ,0,0,0.,12.0,0.,12.0,0.,12.0,0.,12.0
1979-07-26 03:42:04.860 ,0,0,0.,12.0,0.,12.0,0.,12.0,0.,12.0
1979-07-26 03:42:16.860 ,0,0,0.,12.0,0.,12.0,0.,12.0,0.,12.0
1979-07-26 03:42:28.860 ,5,0,1.,12.0,0.,12.0,0.,12.0,0.,12.0
1979-07-26 03:42:40.860 ,5,0,0.,12.0,0.,12.0,0.,12.0,0.,12.0
1979-07-26 03:42:52.860 ,5,0,1.,12.0,0.,12.0,0.,12.0,0.,12.0
1979-07-26 03:43:04.860 ,5,0,0.,12.0,0.,12.0,0.,12.0,0.,12.0
1979-07-26 03:43:16.860 ,4,0,0.,12.0,0.,12.0,0.,12.0,0.,12.0
1979-07-26 03:43:28.860 ,4,0,0.,12.0,0.,12.0,0.,12.0,0.,12.0
1979-07-26 03:43:40.860 ,4,0,0.,12.0,0.,12.0,0.,12.0,0.,12.0
1979-07-26 03:43:52.860 ,4,0,0.,12.0,0.,12.0,0.,12.0,0.,12.0
1979-07-26 03:44:04.860 ,3,0,0.,12.0,0.,12.0,0.,12.0,0.,12.0
1979-07-26 03:44:16.860 ,3,0,0.,12.0,0.,12.0,0.,12.0,0.,12.0
1979-07-26 03:44:28.860 ,3,0,0.,12.0,0.,12.0,0.,12.0,0.,12.0
1979-07-26 03:44:40.860 ,3,0,0.,12.0,0.,12.0,0.,12.0,0.,12.0
1979-07-26 03:44:52.860 ,2,0,0.,12.0,0.,12.0,0.,12.0,0.,12.0
1979-07-26 03:45:04.860 ,2,0,0.,12.0,0.,12.0,0.,12.0,0.,12.0
1979-07-26 03:45:16.860 ,2,0,0.,12.0,0.,12.0,0.,12.0,0.,12.0
1979-07-26 03:45:28.860 ,2,0,0.,12.0,0.,12.0,0.,12.0,0.,12.0
1979-07-26 03:45:40.860 ,1,0,0.,12.0,0.,12.0,0.,12.0,0.,12.0
1979-07-26 03:45:52.860 ,1,0,0.,12.0,0.,12.0,0.,12.0,0.,12.0
1979-07-26 03:46:04.860 ,1,0,0.,12.0,0.,12.0,0.,12.0,0.,12.0
1979-07-26 03:46:16.860 ,1,0,0.,12.0,0.,12.0,0.,12.0,0.,12.0
1979-07-26 03:46:28.860 ,0,0,0.,12.0,0.,12.0,0.,12.0,0.,12.0
1979-07-26 03:46:40.860 ,0,0,0.,12.0,0.,12.0,0.,12.0,0.,12.0
1979-07-26 03:46:52.860 ,0,0,0.,12.0,0.,12.0,0.,12.0,0.,12.0
1979-07-26 03:47:04.860 ,0,0,0.,12.0,0.,12.0,0.,12.0,0.,12.0
1979-07-26 03:47:16.860 ,0,0,1.,12.0,0.,12.0,0.,12.0,0.,12.0
1979-07-26 03:47:28.860 ,0,0,0.,12.0,0.,12.0,0.,12.0,0.,12.0
1979-07-26 03:47:40.860 ,0,0,0.,12.0,0.,12.0,0.,12.0,0.,12.0
1979-07-26 03:47:52.860 ,0,0,0.,12.0,0.,12.0,0.,12.0,0.,12.0
1979-07-26 03:48:04.860 ,1,0,0.,12.0,0.,12.0,0.,12.0,0.,12.0
1979-07-26 03:48:16.860 ,1,0,0.,12.0,0.,12.0,0.,12.0,0.,12.0
1979-07-26 03:48:28.860 ,1,0,0.,12.0,0.,12.0,0.,12.0,0.,12.0
1979-07-26 03:48:40.860 ,1,0,0.,12.0,0.,12.0,0.,12.0,0.,12.0
1979-07-26 03:48:52.860 ,2,0,1.,12.0,0.,12.0,0.,12.0,0.,12.0
1979-07-26 03:49:04.860 ,2,0,0.,12.0,0.,12.0,0.,12.0,0.,12.0
1979-07-26 03:49:16.860 ,2,0,0.,12.0,0.,12.0,0.,12.0,0.,12.0
1979-07-26 03:49:28.860 ,2,0,0.,12.0,0.,12.0,0.,12.0,0.,12.0
1979-07-26 03:49:40.860 ,3,0,0.,12.0,0.,12.0,0.,12.0,0.,12.0
1979-07-26 03:49:52.860 ,3,0,0.,12.0,0.,12.0,0.,12.0,0.,12.0
1979-07-26 03:50:04.860 ,3,0,0.,12.0,0.,12.0,0.,12.0,0.,12.0
1979-07-26 03:50:16.860 ,3,0,0.,12.0,0.,12.0,0.,12.0,0.,12.0
1979-07-26 03:50:28.860 ,4,0,0.,12.0,0.,12.0,0.,12.0,0.,12.0
1979-07-26 03:50:40.860 ,4,0,0.,12.0,0.,12.0,0.,12.0,0.,12.0
1979-07-26 03:50:52.860 ,4,0,0.,12.0,0.,12.0,0.,12.0,0.,12.0
1979-07-26 03:51:04.860 ,4,0,0.,12.0,0.,12.0,0.,12.0,0.,12.0
1979-07-26 03:51:16.860 ,5,0,0.,12.0,0.,12.0,0.,12.0,0.,12.0
1979-07-26 03:51:28.860 ,5,0,0.,12.0,0.,12.0,0.,12.0,0.,12.0
1979-07-26 03:51:40.860 ,5,0,0.,12.0,0.,12.0,0.,12.0,0.,12.0
1979-07-26 03:51:52.860 ,5,0,0.,12.0,0.,12.0,0.,12.0,0.,12.0
1979-07-26 03:52:04.860 ,6,0,0.,12.0,0.,12.0,0.,12.0,0.,12.0
1979-07-26 03:52:16.860 ,6,0,0.,12.0,0.,12.0,0.,12.0,0.,12.0
1979-07-26 03:52:28.860 ,6,0,0.,12.0,0.,12.0,0.,12.0,0.,12.0
1979-07-26 03:52:40.860 ,6,0,0.,12.0,0.,12.0,0.,12.0,0.,12.0
1979-07-26 03:52:52.860 ,7,0,0.,12.0,0.,12.0,0.,12.0,0.,12.0
1979-07-26 03:53:04.860 ,7,0,0.,12.0,0.,12.0,0.,12.0,0.,12.0
1979-07-26 03:53:16.860 ,7,0,0.,12.0,0.,12.0,0.,12.0,0.,12.0
1979-07-26 03:53:28.860 ,7,0,0.,12.0,0.,12.0,0.,12.0,0.,12.0
1979-07-26 03:53:40.860 ,7,0,0.,12.0,0.,12.0,0.,12.0,0.,12.0
1979-07-26 03:53:52.860 ,7,0,0.,12.0,0.,12.0,0.,12.0,0.,12.0
1979-07-26 03:54:04.860 ,7,0,0.,12.0,0.,12.0,0.,12.0,0.,12.0
1979-07-26 03:54:16.860 ,7,0,0.,12.0,0.,12.0,0.,12.0,0.,12.0
1979-07-26 03:54:28.860 ,6,0,0.,12.0,0.,12.0,0.,12.0,0.,12.0
1979-07-26 03:54:40.860 ,6,0,1.,12.0,0.,12.0,0.,12.0,0.,12.0
1979-07-26 03:54:52.860 ,6,0,1.,12.0,0.,12.0,0.,12.0,0.,12.0
1979-07-26 03:55:04.860 ,6,0,0.,12.0,0.,12.0,0.,12.0,0.,12.0
1979-07-26 03:55:16.860 ,5,0,0.,12.0,0.,12.0,0.,12.0,0.,12.0
1979-07-26 03:55:28.860 ,5,0,0.,12.0,0.,12.0,0.,12.0,0.,12.0
1979-07-26 03:55:40.860 ,5,0,0.,12.0,0.,12.0,0.,12.0,0.,12.0
1979-07-26 03:55:52.860 ,5,0,0.,12.0,0.,12.0,0.,12.0,0.,12.0
1979-07-26 03:56:04.860 ,4,0,0.,12.0,0.,12.0,0.,12.0,0.,12.0
1979-07-26 03:56:16.860 ,4,0,0.,12.0,0.,12.0,0.,12.0,0.,12.0
1979-07-26 03:56:28.860 ,4,0,0.,12.0,0.,12.0,0.,12.0,0.,12.0
1979-07-26 03:56:40.860 ,4,0,0.,12.0,0.,12.0,0.,12.0,0.,12.0
1979-07-26 03:56:52.860 ,3,0,0.,12.0,0.,12.0,0.,12.0,0.,12.0
1979-07-26 03:57:04.860 ,3,0,0.,12.0,0.,12.0,0.,12.0,0.,12.0
1979-07-26 03:57:16.860 ,3,0,0.,12.0,0.,12.0,0.,12.0,0.,12.0
1979-07-26 03:57:28.860 ,3,0,0.,12.0,0.,12.0,0.,12.0,0.,12.0
1979-07-26 03:57:40.860 ,2,0,0.,12.0,0.,12.0,0.,12.0,0.,12.0
1979-07-26 03:57:52.860 ,2,0,0.,12.0,0.,12.0,0.,12.0,0.,12.0
1979-07-26 03:58:04.860 ,2,0,0.,12.0,0.,12.0,0.,12.0,0.,12.0
1979-07-26 03:58:16.860 ,2,0,0.,12.0,0.,12.0,0.,12.0,0.,12.0
1979-07-26 03:58:28.860 ,1,0,0.,12.0,0.,12.0,0.,12.0,0.,12.0
1979-07-26 03:58:40.860 ,1,0,0.,12.0,0.,12.0,0.,12.0,0.,12.0
1979-07-26 03:58:52.860 ,1,0,0.,12.0,0.,12.0,0.,12.0,0.,12.0
1979-07-26 03:59:04.860 ,1,0,0.,12.0,0.,12.0,0.,12.0,0.,12.0
1979-07-26 03:59:16.860 ,0,0,0.,12.0,0.,12.0,0.,12.0,0.,12.0
1979-07-26 03:59:28.860 ,0,0,0.,12.0,0.,12.0,0.,12.0,0.,12.0
1979-07-26 03:59:40.860 ,0,0,0.,12.0,0.,12.0,0.,12.0,0.,12.0
1979-07-26 03:59:52.860 ,0,0,0.,12.0,0.,12.0,0.,12.0,0.,12.0
1979-07-26 04:00:04.860 ,0,0,0.,12.0,0.,12.0,0.,12.0,0.,12.0
1979-07-26 04:00:16.860 ,0,0,0.,12.0,0.,12.0,0.,12.0,0.,12.0
1979-07-26 04:00:28.860 ,0,0,0.,12.0,0.,12.0,0.,12.0,0.,12.0
1979-07-26 04:00:40.860 ,0,0,0.,12.0,0.,12.0,0.,12.0,0.,12.0
1979-07-26 04:00:52.860 ,1,0,0.,12.0,0.,12.0,0.,12.0,0.,12.0
1979-07-26 04:01:04.860 ,1,0,0.,12.0,0.,12.0,0.,12.0,0.,12.0
1979-07-26 04:01:16.860 ,1,0,0.,12.0,0.,12.0,0.,12.0,0.,12.0
1979-07-26 04:01:28.860 ,1,0,0.,12.0,0.,12.0,0.,12.0,0.,12.0
1979-07-26 04:01:40.860 ,2,0,0.,12.0,0.,12.0,0.,12.0,0.,12.0
1979-07-26 04:01:52.860 ,2,0,0.,12.0,0.,12.0,0.,12.0,0.,12.0
1979-07-26 04:02:04.860 ,2,0,0.,12.0,0.,12.0,0.,12.0,0.,12.0
1979-07-26 04:02:16.860 ,2,0,0.,12.0,0.,12.0,0.,12.0,0.,12.0
1979-07-26 04:02:28.860 ,3,0,0.,12.0,0.,12.0,0.,12.0,0.,12.0
1979-07-26 04:02:40.860 ,3,0,0.,12.0,0.,12.0,0.,12.0,0.,12.0
1979-07-26 04:02:52.860 ,3,0,0.,12.0,0.,12.0,0.,12.0,0.,12.0
1979-07-26 04:03:04.860 ,3,0,0.,12.0,0.,12.0,0.,12.0,0.,12.0
1979-07-26 04:03:16.860 ,4,0,0.,12.0,0.,12.0,0.,12.0,0.,12.0
1979-07-26 04:03:28.860 ,4,0,0.,12.0,0.,12.0,0.,12.0,0.,12.0
1979-07-26 04:03:40.860 ,4,0,0.,12.0,0.,12.0,0.,12.0,0.,12.0
1979-07-26 04:03:52.860 ,4,0,0.,12.0,0.,12.0,0.,12.0,0.,12.0
1979-07-26 04:04:04.860 ,5,0,0.,12.0,0.,12.0,0.,12.0,0.,12.0
1979-07-26 04:04:16.860 ,5,0,0.,12.0,0.,12.0,0.,12.0,0.,12.0
1979-07-26 04:04:28.860 ,5,0,0.,12.0,0.,12.0,0.,12.0,0.,12.0
1979-07-26 04:04:40.860 ,5,0,0.,12.0,0.,12.0,0.,12.0,0.,12.0
1979-07-26 04:04:52.860 ,6,0,0.,12.0,0.,12.0,0.,12.0,0.,12.0
1979-07-26 04:05:04.860 ,6,0,0.,12.0,0.,12.0,0.,12.0,0.,12.0
1979-07-26 04:05:16.860 ,6,0,0.,12.0,0.,12.0,0.,12.0,0.,12.0
1979-07-26 04:05:28.860 ,6,0,0.,12.0,0.,12.0,0.,12.0,0.,12.0
1979-07-26 04:05:40.860 ,7,0,0.,12.0,0.,12.0,0.,12.0,0.,12.0
1979-07-26 04:05:52.860 ,7,0,0.,12.0,0.,12.0,0.,12.0,0.,12.0
1979-07-26 04:06:04.860 ,7,0,0.,12.0,0.,12.0,0.,12.0,0.,12.0
1979-07-26 04:06:16.860 ,7,0,0.,12.0,0.,12.0,0.,12.0,0.,12.0
1979-07-26 04:06:28.860 ,7,0,0.,12.0,0.,12.0,0.,12.0,0.,12.0
1979-07-26 04:06:40.860 ,7,0,0.,12.0,0.,12.0,0.,12.0,0.,12.0
1979-07-26 04:06:52.860 ,7,0,0.,12.0,0.,12.0,0.,12.0,0.,12.0
1979-07-26 04:07:04.860 ,7,0,0.,12.0,0.,12.0,0.,12.0,0.,12.0
1979-07-26 04:07:16.860 ,6,0,0.,12.0,0.,12.0,0.,12.0,0.,12.0
1979-07-26 04:07:28.860 ,6,0,1.,12.0,0.,12.0,0.,12.0,0.,12.0
1979-07-26 04:07:40.860 ,6,0,0.,12.0,0.,12.0,0.,12.0,0.,12.0
1979-07-26 04:07:52.860 ,6,0,0.,12.0,0.,12.0,0.,12.0,0.,12.0
1979-07-26 04:08:04.860 ,5,0,0.,12.0,0.,12.0,0.,12.0,0.,12.0
1979-07-26 04:08:16.860 ,5,0,0.,12.0,0.,12.0,0.,12.0,0.,12.0
1979-07-26 04:08:28.860 ,5,0,0.,12.0,0.,12.0,0.,12.0,0.,12.0
1979-07-26 04:08:40.860 ,5,0,0.,12.0,0.,12.0,0.,12.0,0.,12.0
1979-07-26 04:08:52.860 ,4,0,0.,12.0,0.,12.0,0.,12.0,0.,12.0
1979-07-26 04:09:04.860 ,4,0,0.,12.0,0.,12.0,0.,12.0,0.,12.0
1979-07-26 04:09:16.860 ,4,0,0.,12.0,0.,12.0,0.,12.0,0.,12.0
1979-07-26 04:09:28.860 ,4,0,0.,12.0,0.,12.0,0.,12.0,0.,12.0
1979-07-26 04:09:40.860 ,3,0,0.,12.0,0.,12.0,0.,12.0,0.,12.0
1979-07-26 04:09:52.860 ,3,0,0.,12.0,0.,12.0,0.,12.0,0.,12.0
1979-07-26 04:10:04.860 ,3,0,0.,12.0,0.,12.0,0.,12.0,0.,12.0
1979-07-26 04:10:16.860 ,3,0,0.,12.0,0.,12.0,0.,12.0,0.,12.0
1979-07-26 04:10:28.860 ,2,0,0.,12.0,0.,12.0,0.,12.0,0.,12.0
1979-07-26 04:10:40.860 ,2,0,0.,12.0,0.,12.0,0.,12.0,0.,12.0
1979-07-26 04:10:52.860 ,2,0,0.,12.0,0.,12.0,0.,12.0,0.,12.0
1979-07-26 04:11:04.860 ,2,0,0.,12.0,0.,12.0,0.,12.0,0.,12.0
1979-07-26 04:11:16.860 ,1,0,0.,12.0,0.,12.0,0.,12.0,0.,12.0
1979-07-26 04:11:28.860 ,1,0,0.,12.0,0.,12.0,0.,12.0,0.,12.0
1979-07-26 04:11:40.860 ,1,0,0.,12.0,0.,12.0,0.,12.0,0.,12.0
1979-07-26 04:11:52.860 ,1,0,0.,12.0,0.,12.0,0.,12.0,0.,12.0
1979-07-26 04:12:04.860 ,0,0,0.,12.0,0.,12.0,0.,12.0,0.,12.0
1979-07-26 04:12:16.860 ,0,0,0.,12.0,0.,12.0,0.,12.0,0.,12.0
1979-07-26 04:12:28.860 ,0,0,0.,12.0,0.,12.0,0.,12.0,0.,12.0
1979-07-26 04:12:40.860 ,0,0,0.,12.0,0.,12.0,0.,12.0,0.,12.0
1979-07-26 04:12:52.860 ,0,0,2.,12.0,0.,12.0,0.,12.0,0.,12.0
1979-07-26 04:13:04.860 ,0,0,0.,12.0,0.,12.0,0.,12.0,0.,12.0
1979-07-26 04:13:16.860 ,0,0,0.,12.0,0.,12.0,0.,12.0,0.,12.0
1979-07-26 04:13:28.860 ,0,0,0.,12.0,0.,12.0,0.,12.0,0.,12.0
1979-07-26 04:13:40.860 ,1,0,0.,12.0,0.,12.0,0.,12.0,0.,12.0
1979-07-26 04:13:52.860 ,1,0,0.,12.0,0.,12.0,0.,12.0,0.,12.0
1979-07-26 04:14:04.860 ,1,0,0.,12.0,0.,12.0,0.,12.0,0.,12.0
1979-07-26 04:14:16.860 ,1,0,0.,12.0,0.,12.0,0.,12.0,0.,12.0
1979-07-26 04:14:28.860 ,2,0,0.,12.0,0.,12.0,0.,12.0,0.,12.0
1979-07-26 04:14:40.860 ,2,0,0.,12.0,0.,12.0,0.,12.0,0.,12.0
1979-07-26 04:14:52.860 ,2,0,0.,12.0,0.,12.0,0.,12.0,0.,12.0
1979-07-26 04:15:04.860 ,2,0,0.,12.0,0.,12.0,0.,12.0,0.,12.0
1979-07-26 04:15:16.860 ,3,0,0.,12.0,0.,12.0,0.,12.0,0.,12.0
1979-07-26 04:15:28.860 ,3,0,0.,12.0,0.,12.0,0.,12.0,0.,12.0
1979-07-26 04:15:40.860 ,3,0,0.,12.0,0.,12.0,0.,12.0,0.,12.0
1979-07-26 04:15:52.860 ,3,0,0.,12.0,0.,12.0,0.,12.0,0.,12.0
1979-07-26 04:16:04.860 ,4,0,0.,12.0,0.,12.0,0.,12.0,0.,12.0
1979-07-26 04:16:16.860 ,4,0,0.,12.0,0.,12.0,0.,12.0,0.,12.0
1979-07-26 04:16:28.860 ,0,0,0.,12.0,0.,12.0,0.,12.0,0.,12.0
1979-07-26 04:16:40.860 ,0,0,,0,,0,,0,,0
1979-07-26 04:16:52.860 ,5,0,0.,12.0,0.,12.0,0.,12.0,0.,12.0
1979-07-26 04:17:04.860 ,5,0,0.,12.0,0.,12.0,0.,12.0,0.,12.0
1979-07-26 04:17:16.860 ,5,0,0.,12.0,0.,12.0,0.,12.0,0.,12.0
1979-07-26 04:17:28.860 ,5,0,0.,12.0,0.,12.0,0.,12.0,0.,12.0